SCP
0 0 0 0 0 0 0 0 0 0 0 0 0 0 0 0 0 0 0 0 0 0 0 0 0 0 0 0 -0 -0 -0 -0 0 0 0 0 0 0 0 0 0 0 0
0 0 0 0 0 0 0 0 0 0 0 0 0 0 0 0 0 0 0 0 0 0 0 0 0 0 0 -0 -0 -0 -0 -0 -0 -0 0 0 0 0 0 0 0 0 0
0 0 0 0 0 0 0 0 0 0 0 0 0 0 0 0 0 0 0 0 0 0 0 -0 0 0 0 0 0 0 0 0 0 0 0 0 0 0 0 0 0 0 0
0 0 0 0 0 0 0 0 0 0 0 0 0 0 0 0 0 0 0 0 0 0 0 0 0 0 0 0 0 0 0 0 0 0 0 0 0 0 0 0 0 0 0
0 0 0 0 0 0 0 0 0 0 0 0 0 0 0 0 0 0 0 0 0 0 0 0 0 0 0 0 0 0 0 0 0 0 0 0 0 0 0 0 0 0 0
0 0 0 0 0 0 0 0 0 0 0 0 0 0 0 0 0 0 0 0 0 0 0 0 0 0 0 0 0 0 0 0 0 0 0 0 0 0 0 0 0 0 0
0 0 0 0 0 0 0 0 0 0 0 0 0 0 0 0 0 0 0 0 0 0 0 0 0 0 0 0 0 0 0 0 0 0 0 0 0 0 0 0 0 0 0
0 0 0 0 0 0 0 0 0 0 0 0 0 0 0 0 0 0 0 0 0 0 0 0 0 0 0 0 0 0 0 0 0 0 0 0 0 0 0 0 0 0 0
0 0 0 0 0 0 0 0 0 0 0 0 0 0 0 0 0 0 0 0 0 0 0 0 0 0 0 0 0 0 0 0 0 0 0 0 0 0 0 0 0 0 0
0 0 0 0 0 0 0 0 0 0 0 0 0 0 0 0 0 0 0 0 0 0 0 0 0 0 0 0 0 0 0 0 0 0 0 0 0 0 0 0 0 0 0
0 0 0 0 0 0 0 0 0 0 0 0 0 0 0 0 0 0 0 0 0 0 0 0 0 0 0 0 0 0 0 0 0 0 0 0 0 0 0 0 0 0 0
0 0 0 0 0 0 0 0 0 0 0 0 0 0 0 0 0 0 0 0 0 0 0 0 -0 0 0 0 0 0 0 0 0 0 0 0 0 0 0 0 0 0 0
0 0 0 0 0 0 0 0 0 0 0 0 0 0 0 0 0 0 0 0 0 0 0 0 0 0 0 0 0 0 0 0 0 0 0 0 0 0 0 0 0 0 0
0 0 0 0 0 0 0 0 0 0 0 0 0 0 0 0 0 0 0 0 0 0 0 0 0 0 0 0 0 0 0 0 0 0 0 0 0 0 0 0 0 0 0
0 0 0 0 0 0 0 0 0 0 0 0 0 0 0 0 0 0 0 0 0 0 0 0 0 0 0 0 0 0 0 0 0 0 0 0 0 0 0 0 0 0 0
0 0 0 0 0 0 0 0 0 0 0 0 0 0 0 0 0 0 0 0 0 0 0 0 0 0 0 0 0 0 0 0 0 0 0 0 0 0 0 0 0 0 0
0 0 0 0 0 0 0 0 0 0 0 0 0 0 0 0 0 0 0 0 0 0 0 0 0 0 0 0 0 0 0 0 0 0 0 0 0 0 0 0 0 0 -0
0 0 0 0 0 0 0 0 0 0 0 0 0 0 0 0 0 0 0 0 0 0 0 0 0 0 0 0 0 0 0 0 0 0 0 0 0 0 0 0 0 0 0
0 0 0 0 0 0 0 0 0 0 0 0 0 0 0 0 0 0 0 0 0 0 0 0 0 0 0 0 0 0 0 0 0 0 0 0 0 0 0 0 0 0 0
0 0 0 0 0 0 0 0 0 0 0 0 0 0 0 0 0 0 0 0 0 0 0 0 0 0 0 0 0 0 0 0 0 0 0 0 0 0 0 0 0 0 -0
0 0 0 0 0 0 0 0 0 0 0 0 0 0 0 0 0 0 0 0 0 0 0 0 0 0 0 0 0 0 0 0 0 0 0 0 0 0 0 0 0 -0 -0
0 0 0 0 0 0 0 0 0 0 0 0 0 0 0 0 0 0 0 0 0 0 0 0 0 0 0 0 0 0 0 0 0 0 0 0 0 0 0 0 0 -0 -0
0 0 0 0 0 0 0 0 0 0 0 0 0 0 0 0 0 0 0 0 0 0 0 0 0 0 0 0 0 0 0 0 0 0 0 0 0 0 0 0 0 -0 -0
0 0 0 0 0 0 0 0 0 0 0 0 0 0 0 0 0 0 0 0 0 0 0 0 0 0 0 0 0 0 0 0 0 0 0 0 0 0 0 0 -0 -0 -0
0 0 0 0 0 0 0 0 0 0 0 0 0 0 0 0 0 0 0 0 0 0 0 0 0 0 0 0 0 0 0 0 0 0 0 0 0 0 0 0 0 0 -0
0 0 0 0 0 0 0 0 0 0 0 0 0 0 0 0 0 0 0 0 0 0 0 0 0 0 0 0 0 0 0 0 0 0 0 0 0 0 0 0 0 0 0
Wind_Speed_500mb
6 5 3 2 3 5 7 8 9 10 12 14 14 15 18 23 29 31 35 39 41 43 42 45 44 47 49 48 50 52 54 57 57 57 62 71 73 75 73 75 70 68 68
6 4 2 3 5 7 8 10 11 12 14 14 14 18 24 28 32 37 42 43 44 48 43 45 45 46 47 48 51 54 53 57 60 59 59 60 61 65 72 80 83 81 85
10 9 8 8 9 9 10 11 14 16 16 19 22 26 31 35 37 41 42 43 42 40 36 41 44 44 49 51 52 54 56 59 60 59 62 63 65 66 67 70 74 79 88
16 15 14 13 12 12 13 14 17 17 24 30 33 33 38 41 42 44 43 37 34 32 45 35 39 44 46 54 56 57 57 59 60 61 62 67 70 71 76 78 78 73 80
20 19 17 15 14 13 13 18 20 26 28 34 41 44 44 42 40 32 30 28 30 41 39 38 43 42 46 51 53 53 57 61 65 61 63 69 72 78 84 86 84 86 82
20 16 13 11 9 10 16 22 25 27 33 38 45 51 42 32 22 28 20 41 32 32 46 43 54 51 52 53 53 57 58 57 57 60 63 65 68 69 73 74 76 80 84
25 20 18 17 19 20 23 24 27 30 31 37 48 46 36 29 23 21 40 47 31 53 44 58 58 58 63 57 58 59 57 58 61 65 64 63 65 66 67 70 73 75 73
35 31 28 26 26 26 27 28 29 31 30 31 33 40 34 38 31 50 50 36 60 48 61 62 62 68 63 68 61 57 60 62 68 75 77 72 72 72 73 73 75 77 76
40 33 30 30 30 31 31 30 30 27 28 29 31 24 12 12 52 43 37 58 55 65 67 67 73 65 69 63 63 66 71 79 82 85 89 90 87 85 79 78 78 78 81
37 34 33 34 32 30 30 27 26 27 26 30 27 27 23 29 27 35 55 63 75 77 75 78 67 71 58 63 68 72 80 87 88 87 87 90 94 96 93 81 80 81 82
40 38 35 34 31 29 26 23 21 21 20 20 19 23 26 31 34 48 68 85 86 89 87 61 65 53 57 59 59 61 83 88 88 89 87 87 87 84 81 78 78 80 81
38 36 34 31 28 25 23 23 17 12 11 14 18 23 30 34 40 49 67 84 89 92 74 80 76 68 55 64 81 91 94 92 90 86 82 81 78 74 77 79 79 79 77
37 33 31 28 26 26 20 15 10 7 9 14 19 24 29 35 41 49 59 73 88 94 82 83 51 47 80 91 98 100 98 94 84 79 74 71 76 74 76 75 76 77 79
36 34 32 30 27 21 16 11 8 9 12 15 19 23 28 35 41 48 57 69 90 89 77 70 42 83 94 100 103 102 99 92 83 79 74 74 76 75 75 74 73 72 71
40 36 34 31 25 22 16 12 10 11 12 16 20 26 30 34 39 45 50 55 63 74 93 64 92 97 101 100 97 96 95 92 89 81 74 72 72 74 76 75 74 72 69
41 41 35 30 27 21 15 11 10 11 13 17 23 28 32 36 39 43 46 50 54 61 66 92 95 96 96 96 94 94 91 91 85 79 72 71 76 73 70 68 66 63 61
44 42 36 32 26 20 15 11 10 11 15 20 25 29 33 35 37 42 47 54 57 61 77 90 89 89 91 94 96 91 90 88 84 73 68 68 66 70 67 56 48 52 47
47 43 39 33 25 19 14 11 10 12 17 23 26 27 29 33 39 46 53 59 64 64 69 85 88 88 85 86 85 87 89 81 74 66 66 63 60 59 59 49 30 61 49
51 47 39 31 24 19 14 10 11 16 20 22 24 26 31 37 44 50 55 61 63 64 66 70 81 77 80 78 84 83 81 74 62 64 60 54 46 49 56 59 52 56 60
50 44 36 29 23 19 13 9 14 16 19 20 21 28 36 44 50 55 59 61 64 64 60 59 68 72 71 72 70 77 81 68 61 63 48 35 48 47 50 54 56 55 54
49 40 33 29 24 19 12 12 15 17 17 18 24 32 40 47 53 57 61 60 60 59 54 55 62 63 67 67 67 66 64 55 48 49 31 30 39 42 51 53 52 52 51
46 40 35 30 25 19 14 16 17 17 16 20 27 35 42 46 51 56 57 57 54 52 51 48 50 55 54 52 53 54 53 52 53 29 25 28 29 33 38 44 43 45 46
45 40 35 31 24 20 18 18 18 18 20 25 30 36 40 46 51 55 56 54 54 45 35 40 41 44 43 41 46 45 38 33 35 13 11 15 17 24 29 37 39 39 39
46 41 36 30 25 23 20 19 19 20 23 28 33 39 43 48 52 56 56 54 48 41 37 37 40 39 36 33 34 37 32 26 21 7 5 2 8 17 22 28 28 35 40
45 40 35 31 30 28 24 22 21 22 26 31 37 42 46 50 56 58 55 53 50 43 34 32 36 33 30 25 25 28 21 18 13 5 9 12 15 18 24 23 24 27 29
45 41 36 34 32 30 28 26 25 26 30 33 37 42 48 54 59 58 56 58 54 43 39 35 36 26 22 17 21 27 24 18 20 14 16 21 24 25 19 20 29 22 24
Wind_Direction_500mb
145 130 113 79 43 22 13 1 354 352 347 344 344 352 352 346 342 338 335 333 334 331 325 322 319 318 317 311 309 309 304 305 305 302 299 300 296 297 300 299 294 295 294
203 224 273 318 330 338 345 348 344 341 340 347 346 343 337 334 332 328 326 323 321 321 316 322 316 313 313 312 309 306 303 301 301 298 298 298 297 296 294 291 289 290 289
244 256 273 287 299 315 325 336 345 346 345 342 335 330 325 321 322 320 321 319 318 326 330 322 321 319 318 317 314 311 309 307 304 301 298 299 299 298 295 292 291 291 280
252 258 266 277 291 310 322 334 335 339 337 332 325 321 318 316 323 319 319 325 324 321 326 326 327 323 320 321 316 313 308 307 304 302 299 294 295 297 294 293 292 291 284
253 254 265 275 295 312 325 323 318 327 328 321 317 318 316 321 319 325 328 326 332 322 332 336 335 334 327 325 323 319 317 314 312 310 300 293 292 291 290 290 289 289 290
262 267 271 285 297 308 306 305 312 320 319 318 317 315 322 326 330 325 348 329 337 341 340 343 337 338 336 335 331 327 325 321 317 314 311 308 303 302 300 300 294 289 289
262 267 274 283 287 287 289 296 299 306 307 320 319 329 345 344 348 348 334 336 353 341 348 342 345 343 339 336 332 329 328 325 321 318 318 317 316 311 308 306 303 301 297
260 265 270 271 276 281 285 290 295 302 310 316 324 324 335 343 334 334 342 348 338 343 342 344 343 340 339 335 335 333 328 324 322 319 317 317 315 313 309 306 302 299 296
259 260 260 267 273 278 280 284 291 294 303 309 311 319 317 288 319 331 336 335 336 338 339 342 340 342 338 337 333 332 329 326 323 320 317 313 310 308 307 305 302 299 299
250 251 257 265 267 271 274 275 281 289 294 294 308 322 336 320 322 321 322 337 334 335 340 341 341 341 341 333 333 329 327 326 320 315 311 306 303 301 301 303 301 299 298
242 249 252 256 259 264 268 269 275 271 288 301 319 325 329 335 337 326 326 331 332 339 342 347 346 349 343 338 332 321 315 320 321 318 314 309 306 307 307 305 302 300 296
243 246 247 246 249 256 256 258 262 276 299 315 325 335 336 339 337 335 329 329 329 333 343 343 345 341 342 330 326 328 330 328 325 322 318 314 315 313 309 308 305 304 300
241 240 241 240 242 251 246 239 244 269 305 325 334 338 340 337 336 332 329 330 331 333 337 343 341 339 333 334 336 336 335 335 335 330 329 322 319 317 315 312 310 308 303
236 235 235 234 238 231 223 216 242 279 314 329 335 335 333 335 335 335 337 335 333 330 332 340 343 333 335 339 341 342 341 343 337 334 330 326 322 319 317 314 312 310 309
237 228 225 230 217 203 204 227 264 297 318 325 330 332 336 337 336 337 337 336 334 327 329 336 328 332 337 339 341 342 343 343 342 341 334 330 328 323 316 313 312 309 305
229 226 228 207 199 201 219 242 268 295 311 325 332 336 335 336 337 336 338 336 331 323 314 323 327 330 334 337 341 342 345 346 347 346 339 334 330 326 325 320 318 316 309
217 221 207 198 199 211 223 240 268 295 319 331 334 332 333 335 338 339 337 334 331 325 318 319 324 331 335 340 341 344 350 351 353 352 348 340 341 341 343 340 339 339 326
214 206 197 199 206 215 225 240 270 308 327 330 331 331 333 337 338 337 337 334 330 326 321 321 328 335 339 341 343 348 353 358 357 357 354 352 356 20 9 16 34 55 82
200 195 198 204 211 217 225 253 297 318 323 325 325 330 334 333 335 336 335 332 328 329 328 326 327 335 339 345 346 353 357 359 2 5 3 11 27 45 46 55 59 52 52
196 197 202 208 214 222 232 268 301 311 315 318 325 328 332 333 334 334 334 332 333 333 331 330 329 334 340 343 350 352 357 9 12 12 23 48 71 55 48 44 41 40 39
196 201 209 212 214 225 247 278 290 299 308 314 323 328 329 331 332 333 334 334 333 334 329 329 333 332 335 344 350 357 358 10 18 18 48 68 65 61 48 40 34 31 32
200 205 209 213 219 232 253 270 278 291 299 313 323 327 329 329 331 331 330 331 332 334 329 328 326 328 332 341 349 357 355 4 9 35 79 75 64 51 46 39 33 32 36
205 208 212 218 227 241 253 263 282 292 304 316 320 324 325 328 329 330 330 333 333 334 328 319 318 323 329 341 347 350 356 1 357 28 91 75 43 43 33 37 31 27 29
206 210 215 224 236 249 255 269 278 286 301 312 320 324 326 328 330 333 332 327 328 331 335 325 317 323 328 334 344 345 344 355 348 343 234 47 19 19 15 14 22 35 29
210 213 219 230 242 252 256 268 277 290 301 310 317 323 327 330 332 335 333 328 325 329 330 314 308 313 313 325 338 347 337 342 346 300 238 297 299 330 334 344 1 12 16
212 217 225 237 247 252 260 272 279 287 295 305 314 322 327 329 332 335 333 330 325 325 322 313 305 299 298 314 334 338 336 332 330 311 283 288 275 310 324 323 338 344 359
Wind_Speed_850mb
6 5 3 2 3 5 7 8 9 10 12 14 14 15 18 23 29 31 35 39 41 43 42 45 44 47 49 48 50 52 54 57 57 57 62 71 73 75 73 75 70 68 68
6 4 2 3 5 7 8 10 11 12 14 14 14 18 24 28 32 37 42 43 44 48 43 45 45 46 47 48 51 54 53 57 60 59 59 60 61 65 72 80 83 81 85
10 9 8 8 9 9 10 11 14 16 16 19 22 26 31 35 37 41 42 43 42 40 36 41 44 44 49 51 52 54 56 59 60 59 62 63 65 66 67 70 74 79 88
16 15 14 13 12 12 13 14 17 17 24 30 33 33 38 41 42 44 43 37 34 32 45 35 39 44 46 54 56 57 57 59 60 61 62 67 70 71 76 78 78 73 80
20 19 17 15 14 13 13 18 20 26 28 34 41 44 44 42 40 32 30 28 30 41 39 38 43 42 46 51 53 53 57 61 65 61 63 69 72 78 84 86 84 86 82
20 16 13 11 9 10 16 22 25 27 33 38 45 51 42 32 22 28 20 41 32 32 46 43 54 51 52 53 53 57 58 57 57 60 63 65 68 69 73 74 76 80 84
25 20 18 17 19 20 23 24 27 30 31 37 48 46 36 29 23 21 40 47 31 53 44 58 58 58 63 57 58 59 57 58 61 65 64 63 65 66 67 70 73 75 73
35 31 28 26 26 26 27 28 29 31 30 31 33 40 34 38 31 50 50 36 60 48 61 62 62 68 63 68 61 57 60 62 68 75 77 72 72 72 73 73 75 77 76
40 33 30 30 30 31 31 30 30 27 28 29 31 24 12 12 52 43 37 58 55 65 67 67 73 65 69 63 63 66 71 79 82 85 89 90 87 85 79 78 78 78 81
37 34 33 34 32 30 30 27 26 27 26 30 27 27 23 29 27 35 55 63 75 77 75 78 67 71 58 63 68 72 80 87 88 87 87 90 94 96 93 81 80 81 82
40 38 35 34 31 29 26 23 21 21 20 20 19 23 26 31 34 48 68 85 86 89 87 61 65 53 57 59 59 61 83 88 88 89 87 87 87 84 81 78 78 80 81
38 36 34 31 28 25 23 23 17 12 11 14 18 23 30 34 40 49 67 84 89 92 74 80 76 68 55 64 81 91 94 92 90 86 82 81 78 74 77 79 79 79 77
37 33 31 28 26 26 20 15 10 7 9 14 19 24 29 35 41 49 59 73 88 94 82 83 51 47 80 91 98 100 98 94 84 79 74 71 76 74 76 75 76 77 79
36 34 32 30 27 21 16 11 8 9 12 15 19 23 28 35 41 48 57 69 90 89 77 70 42 83 94 100 103 102 99 92 83 79 74 74 76 75 75 74 73 72 71
40 36 34 31 25 22 16 12 10 11 12 16 20 26 30 34 39 45 50 55 63 74 93 64 92 97 101 100 97 96 95 92 89 81 74 72 72 74 76 75 74 72 69
41 41 35 30 27 21 15 11 10 11 13 17 23 28 32 36 39 43 46 50 54 61 66 92 95 96 96 96 94 94 91 91 85 79 72 71 76 73 70 68 66 63 61
44 42 36 32 26 20 15 11 10 11 15 20 25 29 33 35 37 42 47 54 57 61 77 90 89 89 91 94 96 91 90 88 84 73 68 68 66 70 67 56 48 52 47
47 43 39 33 25 19 14 11 10 12 17 23 26 27 29 33 39 46 53 59 64 64 69 85 88 88 85 86 85 87 89 81 74 66 66 63 60 59 59 49 30 61 49
51 47 39 31 24 19 14 10 11 16 20 22 24 26 31 37 44 50 55 61 63 64 66 70 81 77 80 78 84 83 81 74 62 64 60 54 46 49 56 59 52 56 60
50 44 36 29 23 19 13 9 14 16 19 20 21 28 36 44 50 55 59 61 64 64 60 59 68 72 71 72 70 77 81 68 61 63 48 35 48 47 50 54 56 55 54
49 40 33 29 24 19 12 12 15 17 17 18 24 32 40 47 53 57 61 60 60 59 54 55 62 63 67 67 67 66 64 55 48 49 31 30 39 42 51 53 52 52 51
46 40 35 30 25 19 14 16 17 17 16 20 27 35 42 46 51 56 57 57 54 52 51 48 50 55 54 52 53 54 53 52 53 29 25 28 29 33 38 44 43 45 46
45 40 35 31 24 20 18 18 18 18 20 25 30 36 40 46 51 55 56 54 54 45 35 40 41 44 43 41 46 45 38 33 35 13 11 15 17 24 29 37 39 39 39
46 41 36 30 25 23 20 19 19 20 23 28 33 39 43 48 52 56 56 54 48 41 37 37 40 39 36 33 34 37 32 26 21 7 5 2 8 17 22 28 28 35 40
45 40 35 31 30 28 24 22 21 22 26 31 37 42 46 50 56 58 55 53 50 43 34 32 36 33 30 25 25 28 21 18 13 5 9 12 15 18 24 23 24 27 29
45 41 36 34 32 30 28 26 25 26 30 33 37 42 48 54 59 58 56 58 54 43 39 35 36 26 22 17 21 27 24 18 20 14 16 21 24 25 19 20 29 22 24
Wind_Direction_850mb
145 130 113 79 43 22 13 1 354 352 347 344 344 352 352 346 342 338 335 333 334 331 325 322 319 318 317 311 309 309 304 305 305 302 299 300 296 297 300 299 294 295 294
203 224 273 318 330 338 345 348 344 341 340 347 346 343 337 334 332 328 326 323 321 321 316 322 316 313 313 312 309 306 303 301 301 298 298 298 297 296 294 291 289 290 289
244 256 273 287 299 315 325 336 345 346 345 342 335 330 325 321 322 320 321 319 318 326 330 322 321 319 318 317 314 311 309 307 304 301 298 299 299 298 295 292 291 291 280
252 258 266 277 291 310 322 334 335 339 337 332 325 321 318 316 323 319 319 325 324 321 326 326 327 323 320 321 316 313 308 307 304 302 299 294 295 297 294 293 292 291 284
253 254 265 275 295 312 325 323 318 327 328 321 317 318 316 321 319 325 328 326 332 322 332 336 335 334 327 325 323 319 317 314 312 310 300 293 292 291 290 290 289 289 290
262 267 271 285 297 308 306 305 312 320 319 318 317 315 322 326 330 325 348 329 337 341 340 343 337 338 336 335 331 327 325 321 317 314 311 308 303 302 300 300 294 289 289
262 267 274 283 287 287 289 296 299 306 307 320 319 329 345 344 348 348 334 336 353 341 348 342 345 343 339 336 332 329 328 325 321 318 318 317 316 311 308 306 303 301 297
260 265 270 271 276 281 285 290 295 302 310 316 324 324 335 343 334 334 342 348 338 343 342 344 343 340 339 335 335 333 328 324 322 319 317 317 315 313 309 306 302 299 296
259 260 260 267 273 278 280 284 291 294 303 309 311 319 317 288 319 331 336 335 336 338 339 342 340 342 338 337 333 332 329 326 323 320 317 313 310 308 307 305 302 299 299
250 251 257 265 267 271 274 275 281 289 294 294 308 322 336 320 322 321 322 337 334 335 340 341 341 341 341 333 333 329 327 326 320 315 311 306 303 301 301 303 301 299 298
242 249 252 256 259 264 268 269 275 271 288 301 319 325 329 335 337 326 326 331 332 339 342 347 346 349 343 338 332 321 315 320 321 318 314 309 306 307 307 305 302 300 296
243 246 247 246 249 256 256 258 262 276 299 315 325 335 336 339 337 335 329 329 329 333 343 343 345 341 342 330 326 328 330 328 325 322 318 314 315 313 309 308 305 304 300
241 240 241 240 242 251 246 239 244 269 305 325 334 338 340 337 336 332 329 330 331 333 337 343 341 339 333 334 336 336 335 335 335 330 329 322 319 317 315 312 310 308 303
236 235 235 234 238 231 223 216 242 279 314 329 335 335 333 335 335 335 337 335 333 330 332 340 343 333 335 339 341 342 341 343 337 334 330 326 322 319 317 314 312 310 309
237 228 225 230 217 203 204 227 264 297 318 325 330 332 336 337 336 337 337 336 334 327 329 336 328 332 337 339 341 342 343 343 342 341 334 330 328 323 316 313 312 309 305
229 226 228 207 199 201 219 242 268 295 311 325 332 336 335 336 337 336 338 336 331 323 314 323 327 330 334 337 341 342 345 346 347 346 339 334 330 326 325 320 318 316 309
217 221 207 198 199 211 223 240 268 295 319 331 334 332 333 335 338 339 337 334 331 325 318 319 324 331 335 340 341 344 350 351 353 352 348 340 341 341 343 340 339 339 326
214 206 197 199 206 215 225 240 270 308 327 330 331 331 333 337 338 337 337 334 330 326 321 321 328 335 339 341 343 348 353 358 357 357 354 352 356 20 9 16 34 55 82
200 195 198 204 211 217 225 253 297 318 323 325 325 330 334 333 335 336 335 332 328 329 328 326 327 335 339 345 346 353 357 359 2 5 3 11 27 45 46 55 59 52 52
196 197 202 208 214 222 232 268 301 311 315 318 325 328 332 333 334 334 334 332 333 333 331 330 329 334 340 343 350 352 357 9 12 12 23 48 71 55 48 44 41 40 39
196 201 209 212 214 225 247 278 290 299 308 314 323 328 329 331 332 333 334 334 333 334 329 329 333 332 335 344 350 357 358 10 18 18 48 68 65 61 48 40 34 31 32
200 205 209 213 219 232 253 270 278 291 299 313 323 327 329 329 331 331 330 331 332 334 329 328 326 328 332 341 349 357 355 4 9 35 79 75 64 51 46 39 33 32 36
205 208 212 218 227 241 253 263 282 292 304 316 320 324 325 328 329 330 330 333 333 334 328 319 318 323 329 341 347 350 356 1 357 28 91 75 43 43 33 37 31 27 29
206 210 215 224 236 249 255 269 278 286 301 312 320 324 326 328 330 333 332 327 328 331 335 325 317 323 328 334 344 345 344 355 348 343 234 47 19 19 15 14 22 35 29
210 213 219 230 242 252 256 268 277 290 301 310 317 323 327 330 332 335 333 328 325 329 330 314 308 313 313 325 338 347 337 342 346 300 238 297 299 330 334 344 1 12 16
212 217 225 237 247 252 260 272 279 287 295 305 314 322 327 329 332 335 333 330 325 325 322 313 305 299 298 314 334 338 336 332 330 311 283 288 275 310 324 323 338 344 359